Terminal Aerodrome Forecast
Issued by NWS

Home | Current Version | Previous Version | Graphics & Text | Print | Product List | Glossary On
Versions: 1 2 3 4 5 6 7 8 9 10 11 12
808
FTUS45 KGGW 241142
TAFSDY
TAF
KSDY 241142Z 2412/2512 32005KT P6SM SKC
     FM241400 33009KT P6SM SKC
     FM241800 33013KT P6SM FEW100
     FM250200 36007KT P6SM FEW100=

USA.gov is the U.S. government's official web portal to all federal, state and local government web resources and services.